Flag for France Weather past 2 weeks in Marseille, France

Now
73 °F

Sunny.


Feels Like: 77 °F
Forecast: 65 / 86 °F
Wind: 2 mph from North

Location: Marseille / Marignane

Current Time: Aug 28, 2015 at 10:09:53 AM

Latest Report: Aug 28, 2015 at 9:30 AM


Visibility: 10 mi

Pressure: 30.09 "Hg

Humidity: 57%

Dew point: 57 °F

Location of MarseilleLocation

Historic Weather in Marseille — Graph

°F

Marseille temperature yesterday

Maximum temperature yesterday: 82 °F (at 12:30 PM)
Minimum temperature yesterday: 63 °F (at 6:00 AM)
Average temperature yesterday: 73 °F

Past Weeks' High & Low Weather Summary

 TemperatureHumidityPressure
High90 °F (Aug 21, 4:30 PM)100% (Aug 14, 4:00 AM)30.09 "Hg (Aug 14, 4:00 AM)
Low61 °F (Aug 26, 3:00 AM)21% (Aug 19, 6:00 PM)29.71 "Hg (Aug 23, 5:30 PM)
Average74 °F55%29.94 "Hg
* Reported Aug 13 9:00 AM — Aug 28 9:00 AM, Marseille, Weather by CustomWeather, © 2015

Note: Actual official high and low records may vary slightly from our data, if they occured in-between our weather recording intervals... More about our weather records

Advertising

Marseille weather history for previous 24 hours

 ConditionsComfort  
Time TempWeatherWind HumidityBarometerVisibility
9:00 AM
Fri, Aug 28
73 °FSunny.No wind57%30.09 "Hg10 mi
8:30 AM70 °FSunny.No wind69%30.09 "Hg10 mi
8:00 AM66 °FSunny.3 mph78%30.07 "Hg10 mi
7:30 AM64 °FClear.5 mph83%30.07 "Hg10 mi
7:00 AM64 °FClear.5 mph78%30.07 "Hg10 mi
6:30 AM68 °FClear.No wind64%30.07 "Hg10 mi
6:00 AM64 °FClear.2 mph78%30.07 "Hg10 mi
5:30 AM64 °FClear.5 mph83%30.07 "Hg10 mi
5:00 AM66 °FClear.3 mph78%30.07 "Hg10 mi
4:30 AM66 °FClear.2 mph78%30.07 "Hg10 mi
4:00 AM68 °FPassing clouds.5 mph73%30.07 "HgN/A
3:30 AM64 °FClear.7 mph88%30.07 "Hg10 mi
3:00 AM66 °FClear.2 mph83%30.07 "Hg10 mi
2:30 AM68 °FClear.3 mph78%30.07 "Hg10 mi
2:00 AM68 °FClear.5 mph78%30.07 "Hg10 mi
1:30 AM68 °FClear.2 mph78%30.07 "Hg10 mi
1:00 AM68 °FPassing clouds.3 mph83%30.07 "HgN/A
12:30 AM70 °FClear.2 mph78%30.07 "Hg10 mi
12:00 AM70 °FClear.3 mph73%30.07 "Hg10 mi
11:30 PM
Thu, Aug 27
70 °FClear.3 mph73%30.07 "Hg10 mi
11:00 PM72 °FPassing clouds.5 mph69%30.04 "HgN/A
10:30 PM70 °FClear.5 mph69%30.04 "Hg10 mi
10:00 PM72 °FClear.5 mph61%30.04 "Hg10 mi
9:30 PM73 °FClear.3 mph57%30.04 "Hg10 mi
9:00 PM73 °FSunny.6 mph61%30.01 "Hg10 mi
8:30 PM73 °FSunny.6 mph61%30.01 "Hg10 mi
8:00 PM75 °FSunny.6 mph57%30.01 "Hg10 mi
7:30 PM77 °FPartly sunny.7 mph51%30.01 "HgN/A
7:00 PM79 °FPartly sunny.12 mph48%30.01 "HgN/A
6:30 PM79 °FPartly sunny.14 mph51%30.01 "HgN/A
6:00 PM79 °FPartly sunny.17 mph54%30.01 "HgN/A
5:30 PM81 °FPartly sunny.22 mph48%30.01 "HgN/A
5:00 PM81 °FPartly sunny.21 mph45%29.98 "HgN/A
4:30 PM81 °FScattered clouds.21 mph45%30.01 "HgN/A
4:00 PM81 °FPassing clouds.18 mph45%30.01 "HgN/A
3:30 PM82 °FPassing clouds.16 mph37%30.01 "HgN/A
3:00 PM82 °FSunny.17 mph35%30.01 "Hg10 mi
2:30 PM82 °FSunny.16 mph42%30.01 "Hg10 mi
2:00 PM81 °FPassing clouds.15 mph39%30.04 "HgN/A
1:30 PM82 °FPassing clouds.12 mph35%30.04 "HgN/A
1:00 PM82 °FPassing clouds.13 mph35%30.04 "HgN/A
12:30 PM82 °FPassing clouds.9 mph35%30.04 "HgN/A
12:00 PM81 °FSunny.5 mph39%30.04 "Hg10 mi
11:30 AM77 °FSunny.6 mph61%30.04 "Hg10 mi
11:00 AM77 °FSunny.6 mph61%30.04 "Hg10 mi
10:30 AM75 °FSunny.5 mph61%30.04 "Hg10 mi
10:00 AM75 °FSunny.3 mph61%30.04 "Hg10 mi
Weather by CustomWeather, © 2015

See weather overviewHow to use our weather pages